Location:  
MeteoStar


Sort by weather type Sort by elevation Sort by visibility Sort from west to east north Sort from north to south Alphabetically Sort from strongest wind speed Sort from lowest to highest pressure Sort from highest to lowest dew point temperature Sort coolest temperatures to warmest Sort warm temperatures to coolest
 Metric

Current Observations for United Kingdom sorted by weather type

Bristol / Lulsgate 00:20ZShowers54 5231019.1SW 6 52620
Eskdalemuir01:00ZLight Showers52 51251013.4WSW 4 51793
Warcop Range01:00ZLight Rain51 50201014.5WSW 4 50744
Loch Glascanoch01:00ZHeavy Rain/Drizzle48 4741012W 5 46869
Prestwick Rnas01:00ZDrizzle55 5371013.0WSW 10 5585
Herstmonceux01:00ZMist55 5461020WNW 3 55170
Lerwick01:00ZCloudy51 50251005.5WNW 13 46269
Inverness / Dalcross00:20ZCloudy54 50301011.1WSW 6 5229
Wick00:20ZCloudy50 48161009.1W 4 49127
Kirkwall Airport00:20ZCloudy50 48451008.1WNW 13 4568
Lossiemouth00:50ZMostly Cloudy54 48201010.1W 9 5142
Kinloss00:50ZMostly Cloudy54 48251011.1W 9 5122
Tiree00:20ZMostly Cloudy54 52251013.1WNW 6 5239
Scatsa / Shetland Island00:20ZMostly Cloudy52 50301005.1WNW 6 5072
Aberdeen / Dyce00:20ZMostly Cloudy54 48301010.1WNW 7 52213
Sumburgh Cape 00:20ZMostly Cloudy54 50451005.1WNW 11 5116
Valley00:50ZMostly Cloudy57 50201017.1W 13 573
Spadeadam00:50ZMostly Cloudy52 50251012.1WSW 13 481066
Camborne01:00ZPartly Cloudy57 51111022WNW 7 57285
Benson00:50ZPartly Cloudy54 50131019.1SSW 6 52206
Stornoway00:20ZPartly Cloudy46 45251011.1W 4 4429
Benbecula00:20ZPartly Cloudy54 48301012.1NW 5 5319
Prestwick Airport00:50ZPartly Cloudy55 54301013.1SW 8 5565
Jersey Airport00:20ZPartly Cloudy59 54121022.1WNW 9 59275
Bingley01:00ZClear53 51151015.5WSW 7 51859
Spadeadam01:00ZClear51 5181013.2WSW 13 46935
Keswick01:00ZClear55 52141014.5WNW 3 55265
Aviemore01:00ZClear49 48201011.5W 2 49721
Marham00:50ZClear50 48121017.1S 5 4875
Cranwell00:50ZClear54 48141016.1WSW 13 50219
Topcliffe Royal Air Force Base 00:50ZClear54 50201014.1SW 7 5291
Leconfield00:50ZClear54 50111015.1SW 8 5219
Linton-On-Ouse00:50ZClear54 50111014.1SW 7 5252
Wittering00:50ZClear52 48201017.1SW 8 49275
Leeming00:50ZClear54 48201014.1S 7 52131
Northolt00:50ZClear54 50181019.1WSW 4 53124
Middle Wallop00:50ZClear52 48201019.1SW 5 51298
Odiham00:50ZClear54 50101019.1SW 7 52403
Fairford Royal Air Force Base00:56ZClear51 49171018.9W 4 50285
Wattisham00:50ZClear50 46171018.1WSW 7 47285
Mildenhall Royal Air Force Base00:56ZClear53 53131017.5SW 7 5132
Lakenheath Royal Air Force Base00:56ZClear54 50131017.5SW 9 5132
Exeter Airport00:20ZClear50 46201020.1N 3 5098
Stansted Airport00:20ZClear50 46201019.1SW 6 48347
Norwich Weather Centre00:20ZClear54 50201017.1SW 7 5245
Glasgow Airport00:20ZClear54 50301012.1SW 6 5226
West Freugh01:00ZClear54 50181014.7W 9 5136
Shawbury00:50ZClear52 50141017.1W 5 51249
Pembrey Sands00:50ZClear57 50201019.1WNW 14 579
Leeds And Bradford00:20ZClear54 50251015.1WSW 9 51682
Humberside00:20ZClear55 50181016.1SSW 10 55101
Lydd Airport 00:20ZClear57 55181020.1W 7 579
London / Heathrow Airport00:20ZClear55 50181019.1WSW 6 5578
Farnborough00:20ZClear50 46181019.1SW 7 47213
London City Airport00:20ZClear59 52121019.1SW 7 5916
Guernsey Airport00:50ZClear57 52251022.1W 8 57334
Luton Airport 00:20ZClear54 5031018.1WSW 8 52524
Liverpool Airport 00:20ZClear57 5231016.1SW 9 5785
Yeovilton00:50ZClear54 50201020.1WSW 5 5375
Culdrose00:50ZClear54 50131021.1W 7 52255
Boscombe Down00:50ZClear52 48251019.1SW 9 49406
Chivenor01:00ZClear57 52151020.2CALM5726
Belfast / Harbour00:20ZClear54 50121015.1WSW 10 5116

Atlantic
Tropical Watch